| time (UTC) | temp F | wind direction | speed MPH | gust MPH | rain 1hr in | rain 24hr in | rain mn in | humidity % | barometer mb |
| 20260902050010 | 60 | 4.0 | 9.0 | 0.00 | 0.01 | 0.00 | 62 | 1011.3 | |
| 20260902044513 | 60 | 2.0 | 9.0 | 0.00 | 0.01 | 0.00 | 64 | 1011.4 | |
| 20260902043009 | 59 | 4.0 | 9.0 | 0.00 | 0.01 | 0.00 | 63 | 1011.5 | |
| 20260902041506 | 59 | 4.0 | 14.0 | 0.00 | 0.01 | 0.00 | 63 | 1011.6 | |
| 20260902040004 | 58 | 4.0 | 9.0 | 0.00 | 0.01 | 0.00 | 65 | 1011.8 | |
| 20260902034502 | 59 | 1.0 | 6.0 | 0.00 | 0.01 | 0.00 | 65 | 1012.0 | |
| 20260902033102 | 59 | 2.0 | 7.0 | 0.00 | 0.01 | 0.00 | 62 | 1012.1 | |
| 20260902031603 | 58 | 3.0 | 7.0 | 0.00 | 0.01 | 0.00 | 64 | 1012.1 | |
| 20260902030058 | 57 | 4.0 | 10.0 | 0.00 | 0.01 | 0.00 | 66 | 1012.3 | |
| 20260902024557 | 57 | 4.0 | 10.0 | 0.00 | 0.01 | 0.00 | 65 | 1012.7 | |
| 20260902023100 | 57 | 3.0 | 8.0 | 0.00 | 0.01 | 0.00 | 67 | 1013.0 | |
| 20260902021554 | 57 | 2.0 | 7.0 | 0.00 | 0.01 | 0.00 | 66 | 1013.3 | |
| 20260902020051 | 57 | 6.0 | 10.0 | 0.00 | 0.01 | 0.00 | 66 | 1013.6 | |
| 20260902014555 | 56 | 3.0 | 12.0 | 0.00 | 0.01 | 0.00 | 67 | 1013.7 | |
| 20260902013056 | 56 | 4.0 | 12.0 | 0.00 | 0.01 | 0.00 | 69 | 1013.8 | |
| 20260902011552 | 56 | 3.0 | 8.0 | 0.00 | 0.01 | 0.00 | 67 | 1013.9 | |
| 20260902010053 | 56 | 5.0 | 12.0 | 0.00 | 0.01 | 0.00 | 69 | 1014.0 | |
| 20260902004552 | 56 | 6.0 | 11.0 | 0.00 | 0.01 | 0.00 | 67 | 1014.2 | |
| 20260902003123 | 55 | 4.0 | 10.0 | 0.00 | 0.01 | 0.00 | 72 | 1014.2 | |
| 20260902001546 | 55 | 4.0 | 8.0 | 0.00 | 0.01 | 0.00 | 69 | 1014.3 | |
| 20260902000047 | 56 | 2.0 | 7.0 | 0.00 | 0.01 | 0.00 | 71 | 1014.4 | |
| 20260901234544 | 55 | 3.0 | 8.0 | 0.00 | 0.01 | 0.00 | 72 | 1014.5 | |
| 20260901233043 | 55 | 1.0 | 5.0 | 0.00 | 0.01 | 0.00 | 76 | 1014.6 | |
| 20260901231552 | 53 | 2.0 | 6.0 | 0.00 | 0.01 | 0.00 | 78 | 1014.7 | |
| 20260901230040 | 52 | 1.0 | 5.0 | 0.00 | 0.01 | 0.00 | 82 | 1014.7 | |
| 20260901224543 | 51 | 3.0 | 6.0 | 0.00 | 0.01 | 0.00 | 85 | 1014.7 | |
| 20260901223036 | 50 | 2.0 | 5.0 | 0.00 | 0.01 | 0.00 | 88 | 1014.6 | |
| 20260901221541 | 49 | 1.0 | 4.0 | 0.00 | 0.01 | 0.00 | 91 | 1014.5 | |
| 20260901220039 | 47 | 0.0 | 2.0 | 0.00 | 0.01 | 0.00 | 93 | 1014.4 | |
| 20260901214535 | 47 | 0.0 | 2.0 | 0.00 | 0.02 | 0.00 | 92 | 1014.3 | |
| 20260901213031 | 47 | 0.0 | 1.0 | 0.00 | 0.02 | 0.00 | 92 | 1014.0 | |
| 20260901211529 | 46 | 0.0 | 1.0 | 0.00 | 0.02 | 0.00 | 93 | 1013.8 | |
| 20260901210026 | 46 | 0.0 | 1.0 | 0.00 | 0.02 | 0.00 | 92 | 1013.7 | |
| 20260901204527 | 47 | 0.0 | 1.0 | 0.00 | 0.02 | 0.00 | 92 | 1013.5 | |
| 20260901203021 | 47 | 0.0 | 2.0 | 0.00 | 0.02 | 0.00 | 92 | 1013.3 | |
| 20260901201518 | 48 | 0.0 | 2.0 | 0.00 | 0.02 | 0.00 | 92 | 1013.1 | |
| 20260901200018 | 48 | 1.0 | 3.0 | 0.00 | 0.02 | 0.00 | 93 | 1013.0 | |
| 20260901194514 | 48 | 0.0 | 2.0 | 0.00 | 0.02 | 0.00 | 92 | 1012.9 | |
| 20260901193012 | 49 | 1.0 | 3.0 | 0.00 | 0.02 | 0.00 | 92 | 1012.8 | |
| 20260901191510 | 50 | 0.0 | 4.0 | 0.00 | 0.02 | 0.00 | 92 | 1012.6 | |
| 20260901190013 | 50 | 0.0 | 4.0 | 0.00 | 0.02 | 0.00 | 92 | 1012.5 | |
| 20260901184505 | 50 | 0.0 | 3.0 | 0.00 | 0.02 | 0.00 | 92 | 1012.3 | |
| 20260901183107 | 51 | 1.0 | 3.0 | 0.00 | 0.02 | 0.00 | 92 | 1012.2 | |
| 20260901181600 | 51 | 0.0 | 4.0 | 0.00 | 0.02 | 0.00 | 91 | 1011.9 | |
| 20260901180057 | 52 | 0.0 | 1.0 | 0.00 | 0.02 | 0.00 | 91 | 1011.9 | |
| 20260901174556 | 52 | 0.0 | 2.0 | 0.00 | 0.02 | 0.00 | 92 | 1012.0 | |
| 20260901173053 | 52 | 0.0 | 3.0 | 0.00 | 0.02 | 0.00 | 92 | 1012.0 | |
| 20260901171613 | 52 | 0.0 | 3.0 | 0.00 | 0.02 | 0.00 | 92 | 1011.9 | |
| 20260901170104 | 53 | 0.0 | 2.0 | 0.00 | 0.02 | 0.00 | 92 | 1011.9 | |
| 20260901164607 | 53 | 1.0 | 3.0 | 0.00 | 0.02 | 0.00 | 92 | 1011.9 | |
| 20260901163105 | 54 | 0.0 | 2.0 | 0.00 | 0.02 | 0.00 | 90 | 1012.0 | |
| 20260901161544 | 55 | 0.0 | 4.0 | 0.00 | 0.02 | 0.00 | 89 | 1011.9 | |
| 20260901160041 | 56 | 1.0 | 4.0 | 0.00 | 0.02 | 0.00 | 87 | 1011.7 | |
| 20260901154548 | 58 | 1.0 | 6.0 | 0.00 | 0.02 | 0.00 | 86 | 1011.4 | |
| 20260901153039 | 58 | 2.0 | 6.0 | 0.00 | 0.02 | 0.00 | 85 | 1011.2 | |
| 20260901151535 | 58 | 3.0 | 8.0 | 0.00 | 0.02 | 0.00 | 85 | 1011.0 | |
| 20260901150031 | 58 | 2.0 | 8.0 | 0.00 | 0.02 | 0.00 | 85 | 1011.1 | |
| 20260901144529 | 59 | 2.0 | 6.0 | 0.00 | 0.02 | 0.00 | 85 | 1011.2 | |
| 20260901143028 | 59 | 3.0 | 7.0 | 0.00 | 0.02 | 0.00 | 84 | 1011.0 | |
| 20260901141527 | 59 | 4.0 | 7.0 | 0.00 | 0.02 | 0.00 | 84 | 1011.0 | |
| 20260901140024 | 59 | 4.0 | 9.0 | 0.00 | 0.02 | 0.00 | 84 | 1011.0 | |
| 20260901134525 | 59 | 5.0 | 9.0 | 0.00 | 0.02 | 0.02 | 85 | 1011.0 | |
| 20260901133023 | 58 | 3.0 | 6.0 | 0.00 | 0.02 | 0.02 | 86 | 1011.1 | |
| 20260901131522 | 59 | 2.0 | 5.0 | 0.00 | 0.02 | 0.02 | 86 | 1011.3 | |
| 20260901130021 | 59 | 3.0 | 9.0 | 0.00 | 0.02 | 0.02 | 86 | 1011.3 | |
| 20260901124523 | 59 | 4.0 | 8.0 | 0.00 | 0.02 | 0.02 | 85 | 1011.4 | |
| 20260901123020 | 58 | 5.0 | 10.0 | 0.00 | 0.02 | 0.02 | 88 | 1011.2 | |
| 20260901121528 | 58 | 6.0 | 13.0 | 0.00 | 0.02 | 0.02 | 90 | 1011.1 | |
| 20260901120019 | 57 | 6.0 | 12.0 | 0.00 | 0.02 | 0.02 | 90 | 1010.8 | |
| 20260901114523 | 57 | 5.0 | 11.0 | 0.00 | 0.02 | 0.02 | 90 | 1010.6 | |
| 20260901113017 | 57 | 7.0 | 12.0 | 0.00 | 0.02 | 0.02 | 90 | 1010.6 | |
| 20260901111517 | 57 | 6.0 | 11.0 | 0.00 | 0.02 | 0.02 | 91 | 1010.4 | |
| 20260901110016 | 56 | 6.0 | 14.0 | 0.01 | 0.02 | 0.02 | 92 | 1010.3 | |
| 20260901104526 | 56 | 2.0 | 5.0 | 0.01 | 0.02 | 0.02 | 94 | 1010.7 | |
| 20260901103017 | 56 | 1.0 | 4.0 | 0.01 | 0.02 | 0.02 | 93 | 1011.1 | |
| 20260901101515 | 58 | 2.0 | 6.0 | 0.01 | 0.02 | 0.02 | 88 | 1010.8 | |
| 20260901100013 | 59 | 2.0 | 5.0 | 0.00 | 0.01 | 0.01 | 82 | 1011.2 | |
| 20260901094519 | 59 | 1.0 | 4.0 | 0.00 | 0.01 | 0.01 | 81 | 1010.8 | |
| 20260901093011 | 60 | 1.0 | 5.0 | 0.00 | 0.01 | 0.01 | 81 | 1010.7 | |
| 20260901091513 | 61 | 1.0 | 7.0 | 0.00 | 0.01 | 0.01 | 78 | 1010.6 | |
| 20260901090011 | 62 | 5.0 | 9.0 | 0.00 | 0.01 | 0.01 | 74 | 1010.7 | |
| 20260901084509 | 63 | 4.0 | 13.0 | 0.00 | 0.01 | 0.01 | 72 | 1010.9 | |
| 20260901083008 | 63 | 2.0 | 5.0 | 0.00 | 0.01 | 0.01 | 72 | 1011.0 | |
| 20260901081508 | 64 | 3.0 | 9.0 | 0.00 | 0.01 | 0.01 | 69 | 1010.9 | |
| 20260901080012 | 64 | 5.0 | 10.0 | 0.00 | 0.01 | 0.01 | 67 | 1011.2 | |
| 20260901074507 | 65 | 4.0 | 7.0 | 0.00 | 0.01 | 0.01 | 66 | 1011.4 | |
| 20260901073016 | 65 | 4.0 | 7.0 | 0.00 | 0.01 | 0.01 | 65 | 1011.4 | |
| 20260901071503 | 65 | 3.0 | 6.0 | 0.00 | 0.01 | 0.01 | 64 | 1011.4 | |
| 20260901070003 | 65 | 3.0 | 9.0 | 0.00 | 0.01 | 0.01 | 64 | 1011.5 | |
| 20260901064503 | 65 | 3.0 | 7.0 | 0.00 | 0.01 | 0.01 | 63 | 1011.4 | |
| 20260901063001 | 65 | 2.0 | 6.0 | 0.00 | 0.01 | 0.01 | 63 | 1011.7 | |
| 20260901061502 | 66 | 3.0 | 7.0 | 0.00 | 0.01 | 0.01 | 62 | 1011.7 | |
| 20260901060100 | 66 | 4.0 | 10.0 | 0.00 | 0.01 | 0.01 | 60 | 1011.5 | |
| 20260901054559 | 67 | 5.0 | 12.0 | 0.00 | 0.01 | 0.01 | 59 | 1011.7 | |
| 20260901053114 | 67 | 5.0 | 14.0 | 0.00 | 0.01 | 0.01 | 59 | 1011.8 | |
| 20260901051559 | 67 | 7.0 | 19.0 | 0.00 | 0.01 | 0.01 | 57 | 1011.7 |